Location: *
(48.4333°N, 5.0333°W)
Time: 01:45:25
(UTC+00:00)

STARLINK-1224 - Pass Details

Date: 09 April 2020
Orbit: 549 x 550 km, 53.0° (Epoch: 05 June)

Event Time Altitude Azimuth Distance (km) Brightness Sun altitude
Rises 20:37:12 0° 295° (WNW) 2,732 9.0 -15.2°
Reaches altitude 10° 20:39:27 10° 296° (WNW) 1,835 7.7 -15.5°
Maximum altitude 20:43:38 89° 29° (NNE) 558 3.6 -16.1°
Enters shadow 20:45:26 33° 116° (ESE) 938 4.2 -16.4°
